Location: Rounton
(54.4000°N, 1.3500°W)
Time: 07:38:25
(UTC+00:00)

Altair - Pass Details

Date: 03 December 2021
Orbit: 1501 x 1683 km, 47.2° (Epoch: 24 January)

Event Time Altitude Azimuth Distance (km) Brightness Sun altitude
Rises 15:43:29 0° 216° (SW) 4,768 12.1 -0.8°
Reaches altitude 10° 15:46:56 10° 208° (SSW) 3,759 10.9 -1.2°
Maximum altitude 15:55:08 35° 148° (SSE) 2,296 8.5 -2.1°
Drops below altitude 10° 16:03:09 10° 87° (E) 3,671 9.0 -3.1°
Enters shadow 16:06:27 - 79° (E) 4,644 9.4 -3.5°
Sets 16:06:27 0° 79° (E) 4,644 - -3.5°
